W1CLK Weather Reports


Display with metric or nautical units.
time (UTC)temp
F
wind
direction
speed
MPH
gust
MPH
rain 1hr
in
rain 24hr
in
rain mn
in
humidity
%
barometer
mb
20260504100344 38 0 0.0 0.0 0.00 0.00 0.00 78 1015.0
20260504081846 46 263 6.0 11.0 0.00 0.00 0.00 60 1015.0
20260504081346 46 271 7.0 11.0 0.00 0.00 0.00 59 1015.0
20260504080845 46 273 7.0 10.0 0.00 0.00 0.00 60 1015.0
20260504080344 47 269 9.0 14.0 0.00 0.00 0.00 60 1015.0
20260504070345 42 96 1.0 2.0 0.00 0.00 0.00 72 1015.0
20260504050344 44 266 7.0 9.0 0.00 0.00 0.00 63 1015.0
20260504045845 43 268 5.0 8.0 0.00 0.00 0.00 69 1015.0
20260504045344 42 266 2.0 7.0 0.00 0.00 0.00 72 1015.0
20260504044844 42 67 0.0 1.0 0.00 0.00 0.00 74 1015.0
20260504044344 42 138 0.0 1.0 0.00 0.00 0.00 73 1015.0
20260504043844 42 84 0.0 2.0 0.00 0.00 0.00 73 1015.0
20260504043344 43 0 0.0 0.0 0.00 0.00 0.00 73 1015.0
20260504042844 43 113 0.0 2.0 0.00 0.00 0.00 71 1015.0
20260504042344 43 163 1.0 3.0 0.00 0.00 0.00 70 1015.0
20260504041844 42 196 4.0 8.0 0.00 0.00 0.00 70 1014.0
20260504041348 41 123 1.0 2.0 0.00 0.00 0.00 73 1014.0
20260504040844 41 95 0.0 3.0 0.00 0.00 0.00 76 1014.0
20260504040344 40 61 0.0 2.0 0.00 0.00 0.00 78 1014.0
20260504035844 40 111 0.0 2.0 0.00 0.00 0.00 78 1014.0
20260504035348 40 52 0.0 1.0 0.00 0.00 0.00 79 1014.0
20260504034844 40 67 1.0 2.0 0.00 0.00 0.00 80 1014.0
20260504034344 40 95 2.0 3.0 0.00 0.00 0.00 82 1014.0
20260504033844 40 59 0.0 2.0 0.00 0.00 0.00 83 1014.0
20260504033345 40 0 0.0 0.0 0.00 0.00 0.00 82 1014.0
20260504032844 40 0 0.0 0.0 0.00 0.00 0.00 81 1014.0
20260504032344 40 101 0.0 1.0 0.00 0.00 0.00 81 1014.0
20260504031844 40 77 0.0 1.0 0.00 0.00 0.00 82 1014.0
20260504031344 40 0 0.0 0.0 0.00 0.00 0.00 81 1014.0
20260504030844 41 0 0.0 0.0 0.00 0.00 0.00 81 1014.0
20260504030344 41 226 0.0 1.0 0.00 0.00 0.00 80 1014.0
20260504025844 41 133 0.0 0.0 0.00 0.00 0.00 79 1014.0
20260504025344 41 133 0.0 1.0 0.00 0.00 0.00 79 1014.0
20260504024845 41 147 0.0 1.0 0.00 0.00 0.00 79 1014.0
20260504024344 42 77 0.0 1.0 0.00 0.00 0.00 79 1014.0
20260504023844 42 53 0.0 2.0 0.00 0.00 0.00 78 1014.0
20260504023344 42 69 0.0 0.0 0.00 0.00 0.00 77 1014.0
20260504022844 42 225 1.0 3.0 0.00 0.00 0.00 77 1014.0
20260504022344 42 160 1.0 2.0 0.00 0.00 0.00 76 1014.0
20260504021844 42 227 1.0 2.0 0.00 0.00 0.00 77 1014.0
20260504021345 42 109 0.0 0.0 0.00 0.00 0.00 76 1014.0
20260504020844 43 76 0.0 1.0 0.00 0.00 0.00 75 1014.0
20260504020344 43 64 0.0 1.0 0.00 0.00 0.00 74 1014.0
20260504015844 43 0 0.0 0.0 0.00 0.00 0.00 72 1014.0
20260504015344 44 69 0.0 1.0 0.00 0.00 0.00 71 1014.0
20260504014845 44 0 0.0 0.0 0.00 0.00 0.00 69 1014.0
20260504014344 45 0 0.0 0.0 0.00 0.00 0.00 68 1014.0
20260504013844 45 125 0.0 1.0 0.00 0.00 0.00 68 1014.0
20260504013344 46 1 0.0 1.0 0.00 0.00 0.00 65 1014.0
20260504012844 46 91 0.0 1.0 0.00 0.00 0.00 64 1014.0
20260504012344 47 85 0.0 1.0 0.00 0.00 0.00 63 1014.0
20260504011844 47 98 0.0 1.0 0.00 0.00 0.00 61 1014.0
20260504011344 48 74 0.0 1.0 0.00 0.00 0.00 61 1014.0
20260504010844 49 240 2.0 4.0 0.00 0.00 0.00 58 1014.0
20260504010344 50 150 0.0 2.0 0.00 0.00 0.00 55 1014.0
20260504005844 50 246 5.0 8.0 0.00 0.00 0.00 54 1014.0
20260504005344 51 262 6.0 10.0 0.00 0.00 0.00 52 1014.0
20260504004844 51 259 5.0 7.0 0.00 0.00 0.00 53 1014.0
20260504004344 51 223 2.0 4.0 0.00 0.00 0.00 52 1014.0
20260504003844 52 254 5.0 8.0 0.00 0.00 0.00 50 1014.0
20260504003344 52 263 3.0 6.0 0.00 0.00 0.00 51 1013.0
20260504002844 52 261 5.0 9.0 0.00 0.00 0.00 49 1013.0
20260504002344 53 253 4.0 6.0 0.00 0.00 0.00 48 1013.0
20260504001844 54 256 5.0 6.0 0.00 0.00 0.00 47 1013.0
20260504001345 54 266 6.0 10.0 0.00 0.00 0.00 45 1013.0
20260504000844 54 265 5.0 8.0 0.00 0.00 0.00 44 1013.0
20260504000346 55 224 3.0 4.0 0.00 0.00 0.00 46 1013.0
20260503235844 55 257 4.0 7.0 0.00 0.00 0.00 43 1013.0
20260503235344 55 264 3.0 6.0 0.00 0.00 0.00 43 1013.0
20260503234844 56 268 3.0 5.0 0.00 0.00 0.00 42 1013.0
20260503234344 56 260 3.0 6.0 0.00 0.00 0.00 42 1013.0
20260503233844 56 273 8.0 11.0 0.00 0.00 0.00 41 1013.0
20260503233344 56 217 3.0 5.0 0.00 0.00 0.00 43 1013.0
20260503232844 56 257 5.0 8.0 0.00 0.00 0.00 42 1013.0
20260503232344 56 255 4.0 8.0 0.00 0.00 0.00 42 1013.0
20260503231844 57 258 5.0 9.0 0.00 0.00 0.00 40 1013.0
20260503231344 57 282 9.0 12.0 0.00 0.00 0.00 40 1013.0
20260503230844 57 279 7.0 11.0 0.00 0.00 0.00 41 1013.0
20260503230344 57 276 7.0 11.0 0.00 0.00 0.00 40 1013.0
20260503225844 57 222 5.0 9.0 0.00 0.00 0.00 40 1013.0
20260503225344 58 239 8.0 10.0 0.00 0.00 0.00 39 1013.0
20260503224845 58 215 3.0 8.0 0.00 0.00 0.00 40 1013.0
20260503224344 58 267 9.0 12.0 0.00 0.00 0.00 39 1013.0
20260503223844 58 243 6.0 10.0 0.00 0.00 0.00 40 1013.0
20260503223344 58 216 5.0 12.0 0.00 0.00 0.00 39 1013.0
20260503222844 59 280 5.0 13.0 0.00 0.00 0.00 38 1013.0
20260503222344 59 242 5.0 9.0 0.00 0.00 0.00 38 1013.0
20260503221845 59 235 4.0 11.0 0.00 0.00 0.00 37 1013.0
20260503221344 59 261 7.0 12.0 0.00 0.00 0.00 37 1013.0
20260503220844 59 245 5.0 9.0 0.00 0.00 0.00 38 1013.0
20260503220345 59 241 6.0 9.0 0.00 0.00 0.00 37 1013.0
20260503215844 59 266 5.0 12.0 0.00 0.00 0.00 38 1013.0
20260503215344 59 248 6.0 9.0 0.00 0.00 0.00 38 1013.0
20260503214845 59 265 13.0 19.0 0.00 0.00 0.00 37 1013.0
20260503214344 59 266 11.0 17.0 0.00 0.00 0.00 38 1013.0
20260503213844 59 260 8.0 19.0 0.00 0.00 0.00 37 1013.0
20260503213347 60 256 9.0 13.0 0.00 0.00 0.00 37 1013.0
20260503212844 60 23 3.0 8.0 0.00 0.00 0.00 36 1013.0
20260503212344 59 235 4.0 9.0 0.00 0.00 0.00 37 1013.0
20260503211845 59 251 7.0 12.0 0.00 0.00 0.00 38 1013.0
20260503211344 59 260 11.0 15.0 0.00 0.00 0.00 37 1013.0
20260503210844 60 249 8.0 14.0 0.00 0.00 0.00 38 1013.0
20260503210344 59 242 3.0 7.0 0.00 0.00 0.00 38 1013.0
20260503205844 58 215 5.0 9.0 0.00 0.00 0.00 37 1013.0
20260503205344 58 259 7.0 11.0 0.00 0.00 0.00 37 1013.0
20260503204844 59 250 7.0 15.0 0.00 0.00 0.00 37 1013.0
20260503204344 59 246 5.0 11.0 0.00 0.00 0.00 39 1013.0
20260503203844 59 350 3.0 7.0 0.00 0.00 0.00 39 1013.0
20260503203344 59 198 3.0 8.0 0.00 0.00 0.00 37 1013.0
20260503202844 60 243 4.0 9.0 0.00 0.00 0.00 38 1013.0
20260503202344 60 242 5.0 9.0 0.00 0.00 0.00 40 1013.0
20260503201845 59 247 6.0 13.0 0.00 0.00 0.00 37 1013.0
20260503201344 59 245 4.0 8.0 0.00 0.00 0.00 39 1013.0
20260503200844 58 232 6.0 11.0 0.00 0.00 0.00 39 1013.0
20260503200344 58 266 10.0 14.0 0.00 0.00 0.00 39 1013.0
20260503195844 58 244 5.0 10.0 0.00 0.00 0.00 38 1013.0
20260503195344 58 236 4.0 9.0 0.00 0.00 0.00 41 1013.0
20260503194846 58 228 7.0 15.0 0.00 0.00 0.00 38 1013.0
20260503194344 58 284 5.0 13.0 0.00 0.00 0.00 41 1013.0
20260503193844 58 231 6.0 13.0 0.00 0.00 0.00 41 1013.0
20260503193344 58 243 7.0 11.0 0.00 0.00 0.00 39 1013.0
20260503192844 58 282 4.0 17.0 0.00 0.00 0.00 40 1013.0
20260503191845 56 164 4.0 6.0 0.00 0.00 0.00 42 1013.0
20260503191344 56 214 3.0 6.0 0.00 0.00 0.00 40 1014.0
20260503190844 57 227 4.0 8.0 0.00 0.00 0.00 39 1014.0
20260503190344 57 54 3.0 9.0 0.00 0.00 0.00 40 1014.0
20260503185844 56 212 4.0 6.0 0.00 0.00 0.00 39 1014.0
20260503185345 57 245 4.0 6.0 0.00 0.00 0.00 40 1014.0
20260503184845 57 183 2.0 6.0 0.00 0.00 0.00 40 1014.0
20260503184344 56 266 8.0 19.0 0.00 0.00 0.00 39 1014.0
20260503183845 57 274 7.0 13.0 0.00 0.00 0.00 40 1014.0
20260503183345 57 169 5.0 8.0 0.00 0.00 0.00 39 1014.0
20260503182844 56 261 7.0 13.0 0.00 0.00 0.00 42 1014.0
20260503182344 56 248 6.0 12.0 0.00 0.00 0.00 39 1014.0
20260503181844 55 228 4.0 13.0 0.00 0.00 0.00 39 1014.0
20260503181345 55 245 5.0 9.0 0.00 0.00 0.00 40 1014.0
20260503180844 56 256 5.0 12.0 0.00 0.00 0.00 43 1014.0
20260503180344 56 255 9.0 18.0 0.00 0.00 0.00 40 1014.0
20260503175844 56 253 5.0 10.0 0.00 0.00 0.00 41 1014.0
20260503175344 56 259 7.0 13.0 0.00 0.00 0.00 40 1014.0
20260503174846 56 238 6.0 11.0 0.00 0.00 0.00 42 1014.0
20260503174344 56 191 3.0 7.0 0.00 0.00 0.00 45 1014.0
20260503173845 55 248 6.0 11.0 0.00 0.00 0.00 40 1014.0
20260503173344 55 266 7.0 11.0 0.00 0.00 0.00 41 1014.0
20260503172844 54 193 4.0 6.0 0.00 0.00 0.00 39 1014.0
20260503172344 54 225 4.0 9.0 0.00 0.00 0.00 41 1014.0
20260503171844 55 212 6.0 8.0 0.00 0.00 0.00 40 1014.0
20260503171344 55 258 4.0 10.0 0.00 0.00 0.00 43 1014.0
20260503170844 54 237 8.0 14.0 0.00 0.00 0.00 40 1014.0
20260503170344 54 272 6.0 12.0 0.00 0.00 0.00 41 1014.0
20260503150845 50 264 9.0 19.0 0.00 0.00 0.00 50 1015.0
20260503150344 51 194 4.0 9.0 0.00 0.00 0.00 50 1015.0
20260503131345 48 236 6.0 12.0 0.00 0.00 0.00 58 1015.0
20260503130844 48 198 6.0 11.0 0.00 0.00 0.00 58 1015.0
20260503130345 48 75 5.0 8.0 0.00 0.00 0.00 57 1015.0
20260503110344 43 219 2.0 4.0 0.00 0.00 0.00 69 1014.0